Location: Hartman Creek State Park
(44.3257°N, 89.2134°W)
Time: 11:50:08
(UTC-05:00)

Cosmos 2263 Rocket - Visible Passes

Search period start: 26 March 2017 00:00
Search period end: 05 April 2017 00:00
Orbit: 824 x 848 km, 71.0° (Epoch: 24 March)

Date Brightness Start Highest point End Pass type
(mag) Time Alt. Az. Time Alt. Az. Time Alt. Az.
26 Mar 4.6 01:53:22 10° N 01:56:25 18° NE 01:56:25 18° NE visible
26 Mar 3.9 03:36:14 10° NNW 03:38:03 21° NNW 03:38:03 21° NNW visible
26 Mar 5.1 20:16:25 10° WNW 20:18:39 12° NW 20:20:53 10° NNW visible
27 Mar 4.6 01:36:46 10° N 01:39:28 16° NNE 01:39:28 16° NNE visible
27 Mar 4.1 03:19:31 10° NNW 03:21:07 20° NNW 03:21:07 20° NNW visible
27 Mar 5.0 19:59:17 10° WNW 20:01:50 13° NW 20:04:24 10° NNW visible
28 Mar 4.7 01:20:11 10° N 01:22:39 15° NNE 01:22:39 15° NNE visible
28 Mar 4.2 03:02:48 10° NNW 03:04:18 19° NNW 03:04:18 19° NNW visible
28 Mar 4.9 19:42:11 10° WNW 19:45:02 14° NW 19:47:53 10° N visible
29 Mar 4.7 01:03:37 10° N 01:05:55 15° NNE 01:05:55 15° NNE visible
29 Mar 4.3 02:46:06 10° NNW 02:47:35 19° NNW 02:47:35 19° NNW visible
30 Mar 4.7 00:47:04 10° N 00:49:15 14° NNE 00:49:15 14° NNE visible
30 Mar 4.3 02:29:23 10° NNW 02:30:54 19° NNW 02:30:54 19° NNW visible
31 Mar 4.8 00:30:33 10° NNE 00:32:36 13° NE 00:32:36 13° NE visible
31 Mar 4.3 02:12:41 10° NNW 02:14:17 19° NNW 02:14:17 19° NNW visible
01 Apr 4.8 00:14:03 10° NNE 00:16:01 12° NE 00:16:01 12° NE visible
01 Apr 4.3 01:55:59 10° NNW 01:57:42 20° NNW 01:57:42 20° NNW visible
01 Apr 4.8 23:57:38 10° NNE 23:59:28 12° NE 23:59:28 12° NE visible
02 Apr 4.3 01:39:18 10° NNW 01:41:08 21° NNW 01:41:08 21° NNW visible
02 Apr 4.8 23:41:18 10° NNE 23:42:43 11° NE 23:42:56 11° NE visible
03 Apr 4.3 01:22:36 10° NNW 01:24:37 22° N 01:24:37 22° N visible
03 Apr 4.7 23:25:15 10° NNE 23:25:54 10° NE 23:26:26 10° NE visible
04 Apr 4.2 01:05:56 10° NNW 01:08:06 23° N 01:08:06 23° N visible
